Location: G�ppingen
(48.7000°N, 9.6670°E)
Time: 08:52:48
(UTC+01:00)

ISS - Visible Passes

Search period start: 19 January 2019 00:00
Search period end: 29 January 2019 00:00
Orbit: 404 x 411 km, 51.6° (Epoch: 19 January)

Date Brightness Start Highest point End Pass type
(mag) Time Alt. Az. Time Alt. Az. Time Alt. Az.
22 Jan -1.2 19:29:06 10° SSW 19:29:54 15° SSW 19:29:54 15° SSW visible
23 Jan -2.1 18:38:25 10° S 18:40:50 19° SE 18:40:55 19° SE visible
24 Jan -1.4 17:48:26 10° SSE 17:49:40 12° SE 17:50:54 10° ESE visible
24 Jan -2.5 19:22:23 10° SW 19:24:35 36° SSW 19:24:35 36° SSW visible
25 Jan -3.0 18:31:14 10° SW 18:34:18 37° SSE 18:35:26 27° ESE visible
25 Jan -0.7 20:07:28 10° W 20:08:10 15° W 20:08:10 15° W visible
26 Jan -2.2 17:40:21 10° SSW 17:43:02 23° SE 17:45:44 10° E visible
26 Jan -3.6 19:15:59 10° WSW 19:18:56 68° W 19:18:56 68° W visible
27 Jan -3.8 18:24:36 10° WSW 18:27:52 70° SSE 18:29:40 24° ENE visible
27 Jan -1.0 20:01:18 10° W 20:02:23 19° WNW 20:02:23 19° WNW visible
28 Jan -3.5 19:09:44 10° W 19:13:00 57° NNW 19:13:04 57° N visible
